Stations météo

Publicité
Salon, France (7648): Température de l'air & dewpoint: 14.09.2019 06:00:00 - 20.09.2019 06:00:00 (CEST)Salon, France (7648): Température de l'air 5cm: 14.09.2019 06:00:00 - 20.09.2019 06:00:00 (CEST)Salon, France (7648): Vitesse du vent & gusts: 14.09.2019 06:00:00 - 20.09.2019 06:00:00 (CEST)Salon, France (7648): Direction du vent: 14.09.2019 06:00:00 - 20.09.2019 06:00:00 (CEST)Salon, France (7648): reduced air pressure: 14.09.2019 06:00:00 - 20.09.2019 06:00:00 (CEST)Salon, France (7648): visibility: 14.09.2019 06:00:00 - 20.09.2019 06:00:00 (CEST)Salon, France (7648): Quantités de précipitations: 14.09.2019 06:00:00 - 20.09.2019 06:00:00 (CEST)
Date & Time tt [°C] td [°C] tt 5cm [°C] ff [km/h] ff [knt] fx [km/h] fx [knt] dd ppp [hPa] vv [km] rr [mm]
20.09.2019 06:00:00 - - - - - - - - - - -
20.09.2019 05:00:00 16,3 10,2 14,9 7 4 9 5 N 1020,0 60 0,0
20.09.2019 04:00:00 16,5 10,6 15,3 0 0 8 4 N 1020,0 60 0,0
20.09.2019 03:00:00 18,1 12,1 16,7 0 0 4 2 N 1020,0 58 0,0
20.09.2019 02:00:00 18,1 12,3 15,5 0 0 3 2 N 1020,1 59 0,0
20.09.2019 01:00:00 17,4 12,3 15,6 0 0 4 2 N 1019,8 10 0,0
20.09.2019 00:00:00 19,2 12,2 17,1 2 1 6 3 SW 1019,7 49 0,0
19.09.2019 23:00:00 18,9 11,9 17,4 4 2 6 4 NNE 1019,4 60 0,0
19.09.2019 22:00:00 21,8 10,3 19,7 5 3 13 7 SSW 1018,6 59 0,0
19.09.2019 21:00:00 22,4 14,8 21,6 10 5 16 8 SW 1017,8 54 0,0
19.09.2019 20:00:00 24,6 11,9 23,4 3 1 10 6 WSW 1016,6 60 0,0
19.09.2019 19:00:00 26,3 10,8 26,9 5 3 17 9 NW 1016,0 59 0,0
19.09.2019 18:00:00 26,9 11,8 28,9 6 3 16 9 WNW 1015,8 37 0,0
19.09.2019 17:00:00 27,3 12,1 29,9 11 6 27 14 W 1015,5 48 0,0
19.09.2019 16:00:00 27,0 12,6 31,1 13 7 24 13 NW 1015,7 43 0,0
19.09.2019 15:00:00 27,2 12,8 32,6 11 6 25 13 NNW 1015,7 59 0,0
19.09.2019 14:00:00 26,1 12,5 31,5 9 5 21 11 WNW 1016,2 60 0,0
19.09.2019 13:00:00 24,8 12,1 27,4 13 7 27 15 NNW 1016,6 47 0,0
19.09.2019 12:00:00 21,8 10,0 23,8 23 12 33 18 NNW 1017,1 47 0,0
19.09.2019 11:00:00 22,0 9,8 23,5 21 12 29 16 NNW 1016,9 32 0,0
19.09.2019 10:00:00 20,6 9,8 22,4 23 12 32 17 NNW 1016,5 27 0,0
19.09.2019 09:00:00 18,7 8,9 17,4 13 7 24 13 N 1016,3 53 0,0
19.09.2019 08:00:00 17,1 8,2 14,8 16 9 25 13 N 1015,9 58 0,0
19.09.2019 07:00:00 16,5 8,9 15,7 5 3 14 8 WNW 1016,1 60 0,0
19.09.2019 06:00:00 16,9 9,3 16,0 10 6 22 12 NNW 1015,5 60 0,0
19.09.2019 05:00:00 18,2 9,8 15,7 13 7 26 14 N 1015,5 60 0,0
19.09.2019 04:00:00 17,3 12,0 16,2 9 5 11 6 ENE 1016,0 60 0,0
19.09.2019 03:00:00 18,2 12,2 17,0 4 2 6 4 S 1016,2 59 0,0
19.09.2019 02:00:00 19,8 11,6 18,1 2 1 20 11 WNW 1016,0 60 0,0
19.09.2019 01:00:00 20,7 11,6 19,5 17 9 39 21 N 1015,4 60 0,0
19.09.2019 00:00:00 21,4 12,0 19,9 15 8 29 16 N 1015,8 60 0,0
18.09.2019 23:00:00 20,7 18,5 20,0 8 4 11 6 NW 1016,8 13 0,0
18.09.2019 22:00:00 21,4 19,5 20,9 3 2 10 5 W 1016,9 7 0,0
18.09.2019 21:00:00 21,9 19,5 21,1 4 2 14 8 WSW 1015,9 10 0,0
18.09.2019 20:00:00 22,9 19,1 22,5 6 3 11 6 W 1015,6 14 0,0
18.09.2019 19:00:00 24,2 19,1 24,6 8 4 20 11 SSW 1014,7 18 0,0
18.09.2019 18:00:00 25,1 18,8 27,6 14 7 25 14 SSW 1014,4 23 0,0
18.09.2019 17:00:00 26,6 18,7 30,4 15 8 27 14 SSW 1014,0 24 0,0
18.09.2019 16:00:00 27,2 18,2 30,2 12 6 19 10 S 1014,2 23 0,0
18.09.2019 15:00:00 27,0 17,5 31,1 14 8 24 13 SW 1014,6 35 0,0
18.09.2019 14:00:00 27,3 17,2 35,2 13 7 26 14 SSW 1014,9 47 0,0
18.09.2019 13:00:00 26,4 18,0 28,6 3 2 19 10 ENE 1015,1 25 0,0
18.09.2019 12:00:00 24,4 17,6 28,8 6 4 13 7 WNW 1015,3 20 0,0
18.09.2019 11:00:00 23,5 17,3 25,5 3 2 11 6 NNE 1015,1 25 0,0
18.09.2019 10:00:00 21,5 17,3 20,8 9 5 14 7 NE 1015,1 20 0,0
18.09.2019 09:00:00 18,9 16,9 16,9 7 4 10 6 NE 1014,6 14 0,0
18.09.2019 08:00:00 17,0 16,4 14,6 5 3 7 4 NE 1014,1 7 0,0
18.09.2019 07:00:00 16,7 16,1 14,9 2 1 7 4 NE 1014,0 6 0,0
18.09.2019 06:00:00 17,0 16,2 15,4 5 3 9 5 NE 1014,0 6 0,0
18.09.2019 05:00:00 17,2 16,6 15,7 4 2 10 5 E 1014,3 4,8 0,0
18.09.2019 04:00:00 17,3 16,7 15,9 6 3 10 5 NE 1014,5 6 0,0
18.09.2019 03:00:00 17,1 16,1 15,8 7 4 10 5 NE 1014,6 7 0,0
18.09.2019 02:00:00 17,2 16,2 16,1 6 3 9 5 NE 1015,0 10 0,0
18.09.2019 01:00:00 17,6 16,5 16,2 3 2 6 4 N 1014,7 9 0,0
18.09.2019 00:00:00 18,2 16,4 16,4 5 3 9 5 ENE 1014,7 18 0,0
17.09.2019 23:00:00 19,5 17,3 17,3 0 0 6 4 N 1014,3 16 0,0
17.09.2019 22:00:00 20,0 17,0 18,3 0 0 4 2 N 1014,4 17 0,0
17.09.2019 21:00:00 22,1 18,3 21,3 3 2 12 6 SW 1014,1 26 0,0
17.09.2019 20:00:00 23,2 18,1 22,6 8 5 17 9 SSW 1013,6 31 0,0
17.09.2019 19:00:00 25,2 17,4 25,8 10 5 20 11 SW 1013,5 40 0,0
17.09.2019 18:00:00 27,0 17,2 31,1 12 6 23 12 SW 1013,4 24 0,0
17.09.2019 17:00:00 28,8 18,0 33,4 16 9 26 14 SSW 1013,5 20 0,0
17.09.2019 16:00:00 29,1 18,5 34,8 16 9 25 13 SW 1013,7 - 0,0
17.09.2019 15:00:00 30,1 16,9 36,9 16 9 23 13 SSW 1014,1 51 0,0
17.09.2019 14:00:00 30,6 15,5 36,7 13 7 19 10 SSW 1014,9 56 0,0
17.09.2019 13:00:00 29,2 15,7 35,1 2 1 10 5 N 1015,4 49 0,0
17.09.2019 12:00:00 27,4 15,1 32,2 3 2 8 4 S 1016,0 42 0,0
17.09.2019 11:00:00 24,9 14,4 28,5 2 1 6 3 NW 1016,4 52 0,0
17.09.2019 10:00:00 21,4 14,5 24,0 0 0 4 2 N 1016,6 36 0,0
17.09.2019 09:00:00 17,9 14,4 16,0 0 0 5 3 N 1016,4 30 0,0
17.09.2019 08:00:00 15,1 13,3 12,9 0 0 3 1 N 1016,4 21 0,0
17.09.2019 07:00:00 14,8 13,2 13,0 0 0 4 2 N 1016,3 14 0,0
17.09.2019 06:00:00 14,7 13,4 13,2 0 0 3 2 N 1016,4 18 0,0
17.09.2019 05:00:00 15,4 13,8 13,9 2 1 5 3 NNE 1016,4 15 0,0
17.09.2019 04:00:00 15,5 13,9 14,0 0 0 2 1 N 1016,8 17 0,0
17.09.2019 03:00:00 16,1 14,3 14,6 0 0 6 3 N 1017,2 15 0,0
17.09.2019 02:00:00 16,4 14,4 14,7 3 2 6 3 NE 1017,5 16 0,0
17.09.2019 01:00:00 17,3 14,8 15,3 0 0 5 3 N 1018,0 21 0,0
17.09.2019 00:00:00 17,9 14,8 16,2 5 3 7 4 NE 1018,3 25 0,0
16.09.2019 23:00:00 18,9 15,0 16,5 0 0 4 2 N 1018,0 28 0,0
16.09.2019 22:00:00 19,3 15,2 17,7 3 2 5 3 ENE 1018,0 35 0,0
16.09.2019 21:00:00 21,9 15,0 20,0 0 0 7 4 N 1017,9 46 0,0
16.09.2019 20:00:00 23,8 15,8 22,9 4 2 16 9 S 1017,3 53 0,0
16.09.2019 19:00:00 25,4 15,7 26,0 10 5 21 12 S 1017,1 39 0,0
16.09.2019 18:00:00 26,5 16,7 30,3 16 8 29 16 SSW 1017,2 54 0,0
16.09.2019 17:00:00 27,4 17,6 32,0 19 10 34 19 SSW 1017,1 59 0,0
16.09.2019 16:00:00 29,4 16,9 34,3 24 13 47 25 SSW 1017,0 60 0,0
16.09.2019 15:00:00 32,0 14,2 38,0 10 5 21 12 NNW 1017,3 60 0,0
16.09.2019 14:00:00 31,4 14,1 37,1 6 3 16 9 NW 1018,1 53 0,0
16.09.2019 13:00:00 30,5 14,6 35,9 6 3 18 10 NW 1018,8 18 0,0
16.09.2019 12:00:00 29,3 14,7 33,5 2 1 9 5 NNW 1019,4 41 0,0
16.09.2019 11:00:00 26,8 16,1 30,8 4 2 8 5 N 1020,1 37 0,0
16.09.2019 10:00:00 24,2 17,0 25,0 0 0 7 4 N 1020,4 20 0,0
16.09.2019 09:00:00 19,3 16,0 16,9 5 3 8 4 NE 1020,7 21 0,0
16.09.2019 08:00:00 16,3 14,7 14,4 0 0 5 3 N 1020,5 16 0,0
16.09.2019 07:00:00 15,7 14,2 14,2 2 1 3 2 E 1020,3 14 0,0
16.09.2019 06:00:00 17,0 14,6 15,1 0 0 5 3 N 1020,1 16 0,0
16.09.2019 05:00:00 17,6 15,0 15,7 3 2 5 3 N 1020,4 20 0,0
16.09.2019 04:00:00 18,1 15,2 17,1 3 2 10 6 NE 1020,6 33 0,0
16.09.2019 03:00:00 18,5 15,4 17,7 5 3 11 6 NE 1020,7 32 0,0
16.09.2019 02:00:00 18,6 15,7 17,3 5 3 8 4 NE 1021,4 30 0,0
16.09.2019 01:00:00 18,6 15,8 17,3 4 2 10 5 NNE 1021,3 29 0,0
16.09.2019 00:00:00 19,0 15,9 17,5 4 2 8 5 NE 1021,6 20 0,0
15.09.2019 23:00:00 20,6 16,4 18,7 3 2 5 3 SW 1021,4 20 0,0
15.09.2019 22:00:00 21,3 16,7 19,8 0 0 5 3 N 1021,4 23 0,0
15.09.2019 21:00:00 23,6 16,1 22,8 0 0 7 4 N 1021,3 28 0,0
15.09.2019 20:00:00 24,3 16,6 23,8 5 3 8 5 NNW 1021,4 32 0,0
15.09.2019 19:00:00 25,4 16,0 26,3 5 3 15 8 W 1021,9 52 0,0
15.09.2019 18:00:00 25,9 15,9 26,9 13 7 26 14 SW 1022,2 51 0,0
15.09.2019 17:00:00 28,0 15,3 32,9 16 9 29 15 SW 1022,1 60 0,0
15.09.2019 16:00:00 29,4 14,4 35,0 17 9 24 13 SW 1022,1 60 0,0
15.09.2019 15:00:00 30,3 13,1 33,3 13 7 25 13 SW 1022,6 60 0,0
15.09.2019 14:00:00 30,4 13,2 36,0 13 7 22 12 SSW 1023,1 54 0,0
15.09.2019 13:00:00 29,9 12,8 35,5 16 9 26 14 SW 1023,7 60 0,0
15.09.2019 12:00:00 29,5 12,4 36,4 10 5 23 13 S 1024,1 60 0,0
15.09.2019 11:00:00 28,8 13,5 32,1 4 2 10 5 NNE 1024,3 53 0,0
15.09.2019 10:00:00 24,6 15,0 25,3 7 4 12 6 ENE 1024,2 53 0,0
15.09.2019 09:00:00 19,7 15,6 15,6 8 5 12 6 NNE 1024,5 48 0,0
15.09.2019 08:00:00 16,0 13,7 13,9 0 0 8 4 N 1024,6 30 0,0
15.09.2019 07:00:00 15,6 13,3 13,8 2 1 5 3 ENE 1024,6 32 0,0
15.09.2019 06:00:00 16,1 13,9 14,4 2 1 8 4 NNE 1024,3 32 0,0
15.09.2019 05:00:00 16,4 14,2 14,5 3 2 5 3 N 1024,6 26 0,0
15.09.2019 04:00:00 16,4 14,4 14,7 0 0 7 4 N 1025,1 28 0,0
15.09.2019 03:00:00 15,9 14,1 14,3 4 2 6 4 N 1025,2 28 0,0
15.09.2019 02:00:00 17,0 14,6 14,6 2 1 8 5 W 1025,4 28 0,0
15.09.2019 01:00:00 17,7 14,8 16,1 3 1 5 3 NNW 1025,2 34 0,0
15.09.2019 00:00:00 18,4 14,9 16,0 2 1 6 4 NE 1025,5 34 0,0
14.09.2019 23:00:00 18,7 15,2 16,7 3 2 5 3 NNE 1025,7 38 0,0
14.09.2019 22:00:00 20,6 16,0 17,7 4 2 5 3 SSW 1025,6 38 0,0
14.09.2019 21:00:00 21,7 15,3 19,3 3 1 7 4 SSE 1025,6 37 0,0
14.09.2019 20:00:00 24,6 15,5 23,8 7 4 21 12 SW 1025,3 58 0,0
14.09.2019 19:00:00 27,9 15,2 28,8 12 6 18 10 WSW 1024,7 43 0,0
14.09.2019 18:00:00 29,2 14,6 30,9 11 6 19 11 WSW 1024,5 35 0,0
14.09.2019 17:00:00 29,3 14,3 31,5 11 6 23 13 W 1024,5 42 0,0
14.09.2019 16:00:00 29,1 13,7 32,0 11 6 19 10 SSW 1025,1 34 0,0
14.09.2019 15:00:00 29,1 13,3 31,3 13 7 29 15 SW 1025,3 46 0,0
14.09.2019 14:00:00 29,0 14,0 30,5 9 5 16 9 W 1025,6 60 0,0
14.09.2019 13:00:00 30,9 12,8 34,7 8 4 19 10 S 1025,9 60 0,0
14.09.2019 12:00:00 30,5 11,5 36,1 11 6 22 12 E 1025,7 60 0,0
14.09.2019 11:00:00 28,1 13,6 31,7 11 6 16 9 ENE 1026,1 47 0,0
14.09.2019 10:00:00 24,9 15,0 25,3 9 5 13 7 ENE 1026,5 45 0,0
14.09.2019 09:00:00 20,4 14,3 17,8 5 3 9 5 E 1026,9 51 0,0
14.09.2019 08:00:00 16,2 12,7 13,3 6 3 10 6 NE 1027,0 40 0,0
14.09.2019 07:00:00 14,4 12,1 12,4 4 2 5 3 NNE 1027,2 35 0,0
14.09.2019 06:00:00 14,4 11,9 12,6 0 0 6 3 N 1027,3 37 0,0

tt = Température de l'air
td = dewpoint
tt 5cm = Température de l'air 5cm
ff = Vitesse du vent
fx = gusts
dd = Direction du vent
ppp = reduced air pressure
vv = visibility
rr = Quantités de précipitations

stations d'obs. à proximité